Location: Ferris
(32.5340°N, 96.6656°W)
Time: 11:00:04
(UTC+00:00)

Cosmos 2297 Rocket - Pass Details

Date: 11 February 2026
Orbit: 838 x 843 km, 71.0° (Epoch: 8 March)

Event Time Altitude Azimuth Distance (km) Brightness Sun altitude
Exits shadow 12:09:42 16° 307° (NW) 2,092 3.7 -13.9°
Maximum altitude 12:13:13 28° 258° (WSW) 1,513 3.0 -13.2°
Drops below altitude 10° 12:17:57 10° 200° (SSW) 2,446 4.5 -12.2°
Sets 12:20:40 0° 189° (S) 3,375 5.3 -11.6°
